Weather observations for the past three days for
Pinedale, Ralph Wenz Field Airport
Imperial (Metric)
Date Time (mdt) Wind (mph) Vis. (mi.) Weather Sky Cond. Temperature (ºF) Relative Humidity Wind Chill (°F) Heat Index (°F) Pressure Precipitation (in)
Air Dwpt 6 hour altimeter (in) sea level (mb) 1 hr 3 hr 6 hr
Max. Min.
04 05:55 W 7 10.00 Fair CLR 26.6 21.2 80% 20 29.94 0.0
04 05:35 W 5 10.00 Fair CLR 26.6 21.2 80% 22 29.94 0.0
04 05:15 NW 5 10.00 Fair CLR 28.4 21.2 74% 24 29.95 0.0
04 04:55 NW 6 10.00 Fair CLR 28.4 21.2 74% 23 29.95 0.0
04 04:35 NW 5 10.00 Fair CLR 26.6 21.2 80% 22 29.95 0.0
04 04:15 Calm 10.00 Fair CLR 28.4 21.2 74% 29.95 0.0
04 03:55 W 6 10.00 Fair CLR 28.4 21.2 74% 23 29.95 0.0
04 03:15 NW 3 10.00 Fair CLR 28.4 21.2 74% 29.95 0.0
04 02:55 Calm 10.00 Fair CLR 28.4 21.2 74% 29.95 0.0
04 02:35 W 5 10.00 Fair CLR 30.2 21.2 69% 26 29.95 0.0
04 02:15 NW 5 10.00 Fair CLR 30.2 21.2 69% 26 29.95 0.0
04 01:55 Calm 10.00 Fair CLR 30.2 21.2 69% 29.96 0.0
04 01:35 NW 7 10.00 Fair CLR 32 21.2 64% 26 29.97 0.0
04 01:15 NW 8 10.00 Fair CLR 32 21.2 64% 25 29.97 0.0
04 00:55 NW 7 10.00 Fair CLR 32 23 69% 26 29.97 0.0
04 00:35 W 6 10.00 Fair CLR 33.8 23 65% 29 29.97 0.0
04 00:15 W 6 10.00 Fair CLR 32 23 69% 27 29.98 0.0
03 23:55 W 5 10.00 Fair CLR 33.8 23 65% 30 29.98 0.0
03 23:35 W 3 10.00 Fair CLR 35.6 23 60% 29.98 0.0
03 23:15 NW 3 10.00 Fair CLR 35.6 23 60% 29.99 0.0
03 22:55 NW 7 10.00 Fair CLR 37.4 23 56% 33 29.99 0.0
03 22:35 NW 3 10.00 Fair CLR 39.2 23 52% 29.99 0.0
03 22:15 NW 8 10.00 Fair CLR 41 23 49% 36 29.99 0.0
03 21:55 NW 7 10.00 Fair CLR 41 23 49% 37 29.99 0.0
03 21:35 NW 5 10.00 Fair CLR 41 23 49% 38 29.98 0.0
03 21:15 W 5 10.00 Fair CLR 42.8 23 46% 41 29.98 0.0
03 20:55 NW 6 10.00 Fair CLR 46.4 21.2 37% 44 29.97 0.0
03 20:35 W 8 10.00 Fair CLR 50 19.4 30% 47 29.97 0.0
03 20:15 W 7 10.00 Fair CLR 53.6 19.4 26% 29.97 0.0
03 19:55 NW 8 10.00 Fair CLR 59 17.6 20% 29.96 0.0
03 19:35 NW 13 10.00 Partly Cloudy SCT110 60.8 14 16% 29.96 0.0
03 19:15 W 13 G 21 10.00 Partly Cloudy SCT110 60.8 14 16% 29.97 0.0
03 18:55 W 8 10.00 Fair CLR 60.8 14 16% 29.97 0.0
03 18:35 W 12 10.00 Fair CLR 62.6 14 15% 29.97 0.0
03 18:15 NW 15 G 21 10.00 Fair CLR 62.6 12.2 14% 29.97 0.0
03 17:55 NW 15 G 23 10.00 Partly Cloudy SCT110 62.6 14 15% 29.97 0.0
03 17:35 NW 14 10.00 Fair CLR 62.6 14 15% 29.97 0.0
03 17:15 W 14 G 18 10.00 Partly Cloudy SCT110 62.6 12.2 14% 29.98 0.0
03 16:55 NW 17 G 23 10.00 Partly Cloudy SCT110 64.4 14 14% 29.98 0.0
03 16:35 W 14 G 23 10.00 Fair CLR 62.6 14 15% 29.99 0.0
03 16:15 W 17 G 21 10.00 Partly Cloudy SCT110 64.4 12.2 13% 30 0.0
03 15:55 W 13 G 26 10.00 Partly Cloudy SCT110 62.6 12.2 14% 30.01 0.0
03 15:35 W 16 G 24 10.00 Fair CLR 64.4 14 14% 30.01 0.0
03 15:15 W 6 10.00 Fair CLR 64.4 12.2 13% 30.01 0.0
03 14:55 W 10 G 21 10.00 Partly Cloudy SCT110 62.6 10.4 13% 30.03 0.0
03 14:35 W 12 G 22 10.00 Mostly Cloudy BKN110 64.4 12.2 13% 30.03 0.0
03 14:15 W 13 G 18 10.00 Partly Cloudy SCT110 62.6 12.2 14% 30.04 0.0
03 13:55 W 12 G 23 10.00 Fair CLR 64.4 12.2 13% 30.05 0.0
03 13:35 W 20 G 24 10.00 Partly Cloudy SCT110 64.4 14 14% 30.05 0.0
03 13:15 NW 10 G 18 10.00 Mostly Cloudy BKN110 62.6 14 15% 30.05 0.0
03 12:35 SW 9 G 18 10.00 Mostly Cloudy BKN110 62.6 15.8 16% 30.07 0.0
03 12:15 W 12 G 21 10.00 Partly Cloudy SCT100 60.8 14 16% 30.08 0.0
03 11:55 NW 12 10.00 Fair CLR 60.8 14 16% 30.09 0.0
03 11:35 NW 10 10.00 Fair CLR 59 14 17% 30.1 0.0
03 11:15 W 12 G 16 10.00 Fair CLR 59 12.2 16% 30.11 0.0
03 10:55 NW 6 10.00 Fair CLR 57.2 14 18% 30.11 0.0
03 10:35 W 6 10.00 Fair CLR 57.2 17.6 21% 30.11 0.0
03 10:15 Calm 10.00 Fair CLR 55.4 17.6 23% 30.12 0.0
03 09:55 Calm 10.00 Fair CLR 53.6 23 30% 30.13 0.0
03 09:35 Calm 10.00 Fair CLR 50 21.2 32% 30.13 0.0
03 09:15 Calm 10.00 Fair CLR 48.2 23 37% 30.14 0.0
03 08:55 Calm 10.00 Fair CLR 44.6 26.6 49% 30.13 0.0
03 08:35 Calm 10.00 Fair CLR 41 26.6 57% 30.14 0.0
03 08:15 NW 5 10.00 Fair CLR 37.4 26.6 65% 34 30.14 0.0
03 07:55 NW 6 10.00 Fair CLR 35.6 23 60% 31 30.15 0.0
03 07:35 NW 8 10.00 Fair CLR 32 23 69% 25 30.15 0.0
03 07:15 NW 7 10.00 Fair CLR 30.2 23 75% 24 30.14 0.0
03 06:35 W 7 10.00 Fair CLR 26.6 21.2 80% 20 30.14 0.0
03 06:15 NW 5 10.00 Fair CLR 26.6 21.2 80% 22 30.13 0.0
03 05:55 W 7 10.00 Fair CLR 26.6 21.2 80% 20 30.13 0.0
03 05:35 NW 6 10.00 Fair CLR 26.6 21.2 80% 21 30.13 0.0
03 05:15 NW 3 10.00 Fair CLR 28.4 21.2 74% 30.13 0.0
03 04:55 NW 6 10.00 Fair CLR 28.4 21.2 74% 23 30.13 0.0
03 04:35 NW 6 10.00 Fair CLR 28.4 21.2 74% 23 30.13 0.0
03 04:15 W 7 10.00 Fair CLR 28.4 21.2 74% 22 30.14 0.0
03 03:55 W 5 10.00 Fair CLR 30.2 21.2 69% 26 30.14 0.0
03 03:35 NW 8 10.00 Fair CLR 30.2 21.2 69% 23 30.13 0.0
03 03:15 W 6 10.00 Fair CLR 30.2 23 75% 25 30.13 0.0
03 02:55 NW 6 10.00 Fair CLR 32 23 69% 27 30.13 0.0
03 02:35 NW 7 10.00 Fair CLR 32 23 69% 26 30.14 0.0
03 02:15 W 5 10.00 Fair CLR 30.2 23 75% 26 30.14 0.0
03 01:55 W 7 10.00 Fair CLR 32 23 69% 26 30.14 0.0
03 01:35 NW 6 10.00 Fair CLR 32 23 69% 27 30.14 0.0
03 01:15 W 3 10.00 Fair CLR 32 23 69% 30.14 0.0
03 00:55 NW 5 10.00 Fair CLR 33.8 23 65% 30 30.14 0.0
03 00:35 NW 7 10.00 Fair CLR 33.8 23 65% 28 30.14 0.0
03 00:15 NW 7 10.00 Fair CLR 35.6 23 60% 31 30.14 0.0
02 23:55 W 7 10.00 Fair CLR 35.6 23 60% 31 30.15 0.0
02 23:35 NW 5 10.00 Fair CLR 37.4 23 56% 34 30.15 0.0
02 23:15 W 6 10.00 Fair CLR 37.4 23 56% 33 30.14 0.0
02 22:55 NW 5 10.00 Fair CLR 39.2 23 52% 36 30.15 0.0
02 22:35 W 7 10.00 Fair CLR 37.4 23 56% 33 30.15 0.0
02 22:15 W 7 10.00 Fair CLR 41 23 49% 37 30.15 0.0
02 21:55 NW 8 10.00 Fair CLR 42.8 23 46% 39 30.14 0.0
02 21:35 NW 9 10.00 Fair CLR 44.6 21.2 39% 40 30.13 0.0
02 21:15 NW 8 10.00 Fair CLR 44.6 23 43% 41 30.13 0.0
02 20:55 NW 6 10.00 Fair CLR 48.2 23 37% 46 30.13 0.0
02 20:35 NW 8 10.00 Fair CLR 50 21.2 32% 47 30.11 0.0
02 20:15 NW 9 10.00 Partly Cloudy SCT110 53.6 21.2 28% 30.11 0.0
02 19:55 NW 10 10.00 Mostly Cloudy BKN110 55.4 21.2 26% 30.11 0.0
02 19:35 NW 10 10.00 Mostly Cloudy BKN110 59 19.4 21% 30.1 0.0
02 19:15 NW 15 10.00 Mostly Cloudy BKN120 60.8 17.6 19% 30.1 0.0
02 18:55 W 16 G 22 10.00 Mostly Cloudy BKN120 60.8 15.8 17% 30.1 0.0
02 18:35 NW 13 10.00 Mostly Cloudy BKN120 60.8 15.8 17% 30.1 0.0
02 18:15 W 6 10.00 Partly Cloudy SCT120 62.6 14 15% 30.11 0.0
02 17:55 W 6 10.00 Partly Cloudy SCT110 60.8 14 16% 30.11 0.0
02 17:35 NW 10 10.00 Mostly Cloudy BKN110 62.6 14 15% 30.11 0.0
02 17:15 N 3 10.00 Partly Cloudy SCT110 62.6 14 15% 30.11 0.0
02 16:55 W 6 10.00 Mostly Cloudy BKN110 62.6 14 15% 30.13 0.0
02 16:35 NW 8 10.00 Overcast OVC110 62.6 14 15% 30.13 0.0
02 16:15 N 6 10.00 Partly Cloudy SCT110 62.6 14 15% 30.14 0.0
02 15:55 SE 5 10.00 Fair CLR 62.6 12.2 14% 30.15 0.0
02 15:35 NW 5 10.00 Fair CLR 60.8 12.2 15% 30.16 0.0
02 15:15 NW 7 10.00 Fair CLR 60.8 12.2 15% 30.17 0.0
02 14:55 Calm 10.00 Fair CLR 60.8 12.2 15% 30.18 0.0
02 14:35 SE 5 10.00 Fair CLR 60.8 12.2 15% 30.18 0.0
02 14:15 S 3 10.00 Fair CLR 60.8 12.2 15% 30.19 0.0
02 13:55 NW 8 10.00 Fair CLR 59 10.4 14% 30.2 0.0
02 13:35 N 6 10.00 Fair CLR 59 10.4 14% 30.21 0.0
02 13:15 SW 6 10.00 Fair CLR 59 10.4 14% 30.21 0.0
02 12:55 SW 8 10.00 Fair CLR 57.2 10.4 15% 30.23 0.0
02 12:35 W 9 10.00 Fair CLR 57.2 10.4 15% 30.24 0.0
02 12:15 N 3 10.00 Fair CLR 55.4 12.2 18% 30.24 0.0
02 11:55 NW 5 10.00 Fair CLR 55.4 12.2 18% 30.25 0.0
02 11:35 Calm 10.00 Fair CLR 55.4 12.2 18% 30.26 0.0
02 11:15 Calm 10.00 Fair CLR 55.4 15.8 21% 30.26 0.0
02 10:55 NE 3 10.00 Fair CLR 53.6 14 21% 30.26 0.0
02 10:35 Calm 10.00 Fair CLR 51.8 12.2 20% 30.26 0.0
02 10:15 SE 5 10.00 Fair CLR 51.8 14 22% 30.27 0.0
02 09:55 Calm 10.00 Fair CLR 48.2 14 25% 30.27 0.0
02 09:35 Calm 10.00 Fair CLR 46.4 21.2 37% 30.27 0.0
02 09:15 NW 3 10.00 Fair CLR 44.6 21.2 39% 30.27 0.0
02 08:55 NW 6 10.00 Fair CLR 42.8 23 46% 40 30.28 0.0
02 08:35 NW 6 10.00 Fair CLR 39.2 24.8 56% 36 30.27 0.0
02 08:15 NW 6 10.00 Fair CLR 33.8 23 65% 29 30.28 0.0
02 07:55 NW 7 10.00 Fair CLR 32 23 69% 26 30.28 0.0
02 07:35 NW 5 10.00 Fair CLR 30.2 23 75% 26 30.28 0.0
02 07:15 W 6 10.00 Fair CLR 26.6 21.2 80% 21 30.27 0.0
02 06:55 NW 3 10.00 Fair CLR 26.6 21.2 80% 30.27 0.0
02 06:35 NW 5 10.00 Fair CLR 23 19.4 86% 18 30.27 0.0
02 06:15 NW 3 10.00 Fair CLR 23 19.4 86% 30.27 0.0
02 05:55 NW 5 10.00 Fair CLR 23 19.4 86% 18 30.27 0.0
02 05:35 NW 6 10.00 Fair CLR 24.8 21.2 86% 19 30.27 0.0
02 05:15 W 7 10.00 Fair CLR 24.8 21.2 86% 18 30.27 0.0
02 04:55 NW 3 10.00 Fair CLR 24.8 19.4 80% 30.28 0.0
02 04:35 NW 3 10.00 Fair CLR 24.8 19.4 80% 30.27 0.0
02 04:15 NW 3 10.00 Fair CLR 26.6 21.2 80% 30.27 0.0
02 03:55 NW 6 10.00 Fair CLR 28.4 23 80% 23 30.27 0.0
02 03:35 W 6 10.00 Fair CLR 26.6 23 86% 21 30.27 0.0
02 03:15 W 5 10.00 Fair CLR 28.4 21.2 74% 24 30.27 0.0
02 02:55 W 3 10.00 Fair CLR 26.6 23 86% 30.27 0.0
02 02:35 NW 3 10.00 Fair CLR 28.4 23 80% 30.27 0.0
02 02:15 W 3 10.00 Fair CLR 30.2 23 75% 30.27 0.0
02 01:55 Calm 10.00 Fair CLR 30.2 23 75% 30.27 0.0
02 01:35 Calm 10.00 Fair CLR 32 23 69% 30.27 0.0
02 01:15 Calm 10.00 Fair CLR 32 21.2 64% 30.27 0.0
02 00:55 Calm 10.00 Fair CLR 33.8 21.2 60% 30.27 0.0
02 00:35 NE 3 10.00 Fair CLR 33.8 21.2 60% 30.27 0.0
02 00:15 E 5 10.00 Fair CLR 33.8 21.2 60% 30 30.26 0.0
01 23:55 E 5 10.00 Fair CLR 35.6 21.2 56% 32 30.26 0.0
01 23:35 SE 5 10.00 Fair CLR 33.8 21.2 60% 30 30.25 0.0
01 23:15 SE 8 10.00 Fair CLR 35.6 21.2 56% 30 30.25 0.0
01 22:55 E 9 10.00 Fair CLR 35.6 23 60% 29 30.24 0.0
01 22:35 SE 8 10.00 Fair CLR 35.6 21.2 56% 30 30.24 0.0
01 22:15 SE 3 10.00 Fair CLR 41 19.4 42% 30.24 0.0
01 21:55 E 3 10.00 Fair CLR 41 23 49% 30.24 0.0
01 21:35 Calm 10.00 Fair CLR 42.8 21.2 42% 30.23 0.0
01 21:15 N 3 10.00 Fair CLR 42.8 23 46% 30.21 0.0
01 20:55 Calm 10.00 Fair CLR 44.6 19.4 37% 30.2 0.0
01 20:35 Calm 10.00 Fair CLR 48.2 17.6 29% 30.19 0.0
01 20:15 SE 5 10.00 Fair CLR 51.8 15.8 24% 30.19 0.0
01 19:55 Calm 10.00 Fair CLR 53.6 12.2 19% 30.18 0.0
01 19:35 SE 5 10.00 Fair CLR 53.6 10.4 18% 30.18 0.0
01 19:15 Calm 10.00 Fair CLR 55.4 6.8 14% 30.18 0.0
01 18:55 SE 6 10.00 Fair CLR 55.4 8.6 15% 30.18 0.0
01 18:35 Calm 10.00 Fair CLR 55.4 5 13% 30.18 0.0
01 18:15 NE 6 10.00 Fair CLR 57.2 8.6 14% 30.18 0.0
01 17:55 E 8 10.00 Fair CLR 57.2 6.8 13% 30.18 0.0
01 17:35 Calm 10.00 Fair CLR 55.4 5 13% 30.18 0.0
01 17:15 NE 6 10.00 Fair CLR 57.2 6.8 13% 30.18 0.0
01 16:55 Calm 10.00 Partly Cloudy SCT110 55.4 10.4 16% 30.18 0.0
01 16:35 W 5 10.00 Partly Cloudy SCT110 55.4 10.4 16% 30.18 0.0
01 16:15 SW 7 10.00 Partly Cloudy SCT100 55.4 12.2 18% 30.18 0.0
01 15:55 W 7 10.00 Fair CLR 55.4 12.2 18% 30.19 0.0
01 15:35 NE 5 10.00 Fair CLR 53.6 10.4 18% 30.19 0.0
01 15:15 SW 7 10.00 Fair CLR 55.4 14 19% 30.21 0.0
01 14:55 NW 8 10.00 Fair CLR 53.6 14 21% 30.21 0.0
01 14:35 Calm 10.00 Fair CLR 53.6 12.2 19% 30.21 0.0
01 14:15 N 5 10.00 Fair CLR 51.8 14 22% 30.22 0.0
01 13:55 Calm 10.00 Fair CLR 51.8 14 22% 30.22 0.0
01 13:35 Calm 10.00 Fair CLR 51.8 17.6 26% 30.22 0.0
01 13:15 W 7 10.00 Fair CLR 50 17.6 28% 48 30.22 0.0
01 12:55 Calm 10.00 Fair CLR 50 19.4 30% 30.23 0.0
01 12:35 SW 3 10.00 Fair CLR 46.4 21.2 37% 30.24 0.0
01 12:15 Calm 10.00 Fair CLR 46.4 21.2 37% 30.24 0.0
01 11:55 W 3 10.00 Fair CLR 44.6 23 43% 30.24 0.0
01 11:35 Calm 10.00 Fair CLR 44.6 24.8 46% 30.25 0.0
01 11:15 Calm 10.00 Fair CLR 42.8 28.4 57% 30.25 0.0
01 10:55 W 6 10.00 Fair CLR 42.8 30.2 61% 40 30.26 0.0
01 10:35 W 7 10.00 Fair CLR 41 30.2 66% 37 30.26 0.0
01 10:15 W 3 10.00 Fair CLR 37.4 28.4 70% 30.26 0.0
01 09:55 Calm 10.00 Fair CLR 33.8 30.2 87% 30.26 0.0
01 09:35 W 3 10.00 Fair CLR 32 30.2 93% 30.26 0.0
01 09:15 W 3 10.00 Fair CLR 32 28.4 87% 30.26 0.0
01 08:55 NW 5 10.00 Fair CLR 30.2 26.6 86% 26 30.26 0.0
01 08:35 W 3 10.00 Fair CLR 28.4 24.8 86% 30.26 0.0
01 08:15 W 5 10.00 Fair CLR 26.6 23 86% 22 30.26 0.0
01 07:55 W 7 10.00 Fair CLR 24.8 21.2 86% 18 30.26 0.0
01 07:35 NW 7 10.00 Fair CLR 23 21.2 93% 16 30.25 0.0
01 07:15 W 5 10.00 Fair CLR 21.2 19.4 93% 16 30.24 0.0
01 06:55 W 5 10.00 Fair CLR 19.4 17.6 93% 14 30.24 0.0
Date Time (mdt) Wind (mph) Vis. (mi.) Weather Sky Cond. Air Dwpt Max. Min. Relative Humidity Wind Chill (°F) Heat Index (°F) altimeter (in) sea level (mb) 1 hr 3 hr 6 hr
6 hour
Temperature (ºF) Pressure Precipitation (in)